Terug naar catalogus

STARLINK-3289

ActiefCommunicatieVLEO
NORAD 50173·PAYLOAD·🇺🇸 United States

Gelanceerd Dec 18, 2021 vanaf Vandenberg Space Force Base

Loading…

Volgende Passages (komende 24 uur)

TLE

VersSource: CelesTrak SupGP

Epoch: Sep 15, 2026, 01:53 UTC

1 50173C 21125T   26258.07895833  .00035273  00000+0  17633-2 0  2582
2 50173  53.2125 102.3519 0002532 118.9290 257.7175 15.16919415    16

Volg STARLINK-3289 in realtime met AllMySat

Download on the App Store